Flag for Canada Weather past 2 weeks in Langley, British Columbia, Canada

Now
80 °F

Warm.


Feels Like: 81 °F
Forecast: 56 / 82 °F
Wind: 3 mph from West

Location: P. Meadows Coastal Station

Current Time: Jul 29, 2015 at 2:08:21 PM

Latest Report: Jul 29, 2015 at 1:00 PM


Visibility: N/A

Pressure: 30.17 "Hg

Humidity: 46%

Dew point: 57 °F

Location of LangleyLocation

Historic Weather in Langley — Graph

°F

Langley temperature yesterday

Maximum temperature yesterday: 79 °F (at 6:00 PM)
Minimum temperature yesterday: 54 °F (at 6:00 AM)
Average temperature yesterday: 67 °F

Past Weeks' High & Low Weather Summary

 TemperatureHumidityPressure
High91 °F (Jul 18, 5:00 PM)97% (Jul 24, 10:00 PM)30.29 "Hg (Jul 24, 10:00 PM)
Low53 °F (Jul 23, 5:00 AM)21% (Jul 18, 5:00 PM)29.86 "Hg (Jul 22, 8:00 PM)
Average67 °F67%30.03 "Hg
* Reported Jul 14 12:00 Noon — Jul 29 12:00 Noon, Langley, Weather by CustomWeather, © 2015

Note: Actual official high and low records may vary slightly from our data, if they occured in-between our weather recording intervals... More about our weather records

Advertising

Langley weather history for previous 24 hours

 ConditionsComfort  
Time TempWeatherWind HumidityBarometerVisibility
12:00 PM
Wed, Jul 29
78 °FWarm.2 mph47%30.18 "HgN/A
11:00 AM74 °FMild.3 mph48%30.20 "HgN/A
10:00 AM71 °FMild.1 mph59%30.21 "HgN/A
9:00 AM65 °FMild.2 mph72%30.22 "HgN/A
8:00 AM63 °FMild.1 mph81%30.22 "HgN/A
7:00 AM60 °FCool.1 mph89%30.21 "HgN/A
6:00 AM58 °FCool.No wind92%30.20 "HgN/A
5:00 AM57 °FCool.No wind85%30.20 "HgN/A
4:00 AM58 °FCool.No wind92%30.19 "HgN/A
3:00 AM58 °FCool.No wind91%30.19 "HgN/A
2:00 AM59 °FCool.No wind88%30.19 "HgN/A
1:00 AM61 °FCool.No wind85%30.19 "HgN/A
12:00 AM62 °FCool.No wind79%30.19 "HgN/A
11:00 PM
Tue, Jul 28
64 °FMild.1 mph77%30.19 "HgN/A
10:00 PM69 °FMild.1 mph62%30.19 "HgN/A
9:00 PM71 °FMild.2 mph53%30.18 "HgN/A
8:00 PM72 °FMild.5 mph51%30.18 "HgN/A
7:00 PM77 °FWarm.5 mph44%30.18 "HgN/A
6:00 PM79 °FWarm.5 mph40%30.18 "HgN/A
5:00 PM78 °FWarm.6 mph42%30.19 "HgN/A
4:00 PM78 °FWarm.5 mph41%30.20 "HgN/A
3:00 PM78 °FWarm.5 mph46%30.22 "HgN/A
2:00 PM77 °FWarm.3 mph43%30.23 "HgN/A
Weather by CustomWeather, © 2015

See weather overviewHow to use our weather pages